Погода в Чернолагутинском

Россия / Волгоградская область     50°38′15″N   43°19′29″E
темп.,
°C
ветер,
м/с
пор.,
м/с
влажн.,
%
обл.,
%
осадки,
мм/ч
давл.,
гПа
погр.,
м
18 апреля, вс
вс1800:00+7юз11835 0.0 102010
03:00+6в11855 0.0 102010
06:00+6ююв22865 0.0 102031
09:00+11юз2366100 0.0 1020546
12:00+14з3348100 0.0 10191428
15:00+15зюз2243100 0.0 10181820
18:00+14юз0049100 0.0 101829
21:00+11св115579 0.0 101810
19 апреля, пн
пн1900:00+12ссв115796 0.0 101713
03:00+11ссв1164100 0.0 101713
06:00+10юв127372 0.0 101774
09:00+13вюв436228 0.0 1016885
12:00+15юв1150100 0.1 10161470
15:00+15юв435298 0.4 10151158
18:00+13вюв456454 0.4 1016512
21:00+10в478271 0.5 1017223
20 апреля, вт
вт2000:00+9в498796 0.0 1017266
03:00+9в5109169 0.1 1017406
06:00+9в81389100 0.1 1016538
09:00+9в8148098 0.1 1017696
12:00+11в101673100 0.0 1015968
15:00+9вюв111982100 1.2 1013935
18:00+10вюв132286100 3.7 10101041
21:00+10вюв142474100 3.8 10101032
21 апреля, ср
ср2100:00+9юв132385100 0.7 1010998
03:00+11ююв111889100 0.8 10101082
06:00+9ююв101693100 0.4 1011996
09:00+11ю91475100 1.1 10121302
12:00+10ю81181100 0.1 10141105
15:00+11зюз6881100 0.6 1016880
18:00+11ююз3771100 0.1 1018494
21:00+10ююз368210 0.4 1020130
22 апреля, чт
чт2200:00+9юз2280100 0.0 102142
03:00+9зюз117926 0.0 102211
06:00+8зсз228274 0.0 102370
09:00+11зюз34609 0.0 1024692
12:00+14зюз45485 0.0 10241486
15:00+15зюз444189 0.0 10242122
18:00+12сз355777 0.0 1025401
21:00+11ссв2361100 0.0 102593